When you browse on this site, cookies collect data to enhance your experience and personalize the content and advertising you see.
Visit our Privacy Policy to learn more. By continuing to use the site, you agree to this use of cookies and data.
  • In Austria
  • List of Countries
  • For 7 days
  • Water Temperature
  • Weather Map
  • News
  • Weather Widgets
  • user-avatar
    Login

    Hourly Weather Kidryasovo

    Today, 21 November, Thursday

    Time Temperature Precipitation Wind Pressure Humidity
    00:00 -23°C° 0 mm 4 mps 756 mmHg 86%
    01:00 -22°C° 0 mm 3 mps 756 mmHg 86%
    02:00 -22°C° 0 mm 3 mps 757 mmHg 86%
    03:00 -22°C° 0 mm 3 mps 757 mmHg 86%
    04:00 -22°C° 0 mm 3 mps 757 mmHg 84%
    05:00 -22°C° 0 mm 3 mps 757 mmHg 84%
    06:00 -20°C° 0 mm 2 mps 757 mmHg 85%
    07:00 -20°C° 0 mm 2 mps 757 mmHg 85%
    08:00 -19°C° 0 mm 2 mps 757 mmHg 82%
    09:00 -18°C° 0 mm 2 mps 757 mmHg 78%
    10:00 -17°C° 0 mm 2 mps 758 mmHg 74%
    11:00 -16°C° 0 mm 2 mps 757 mmHg 72%
    12:00 -13°C° 0 mm 1 mps 757 mmHg 70%
    13:00 -12°C° 0 mm 1 mps 757 mmHg 67%
    14:00 -12°C° 0 mm 1 mps 757 mmHg 73%
    15:00 -15°C° 0 mm 2 mps 756 mmHg 79%
    16:00 -15°C° 0 mm 2 mps 756 mmHg 86%
    17:00 -15°C° 0 mm 2 mps 756 mmHg 87%
    18:00 -14°C° 0 mm 1 mps 755 mmHg 89%
    19:00 -14°C° 0 mm 1 mps 755 mmHg 91%
    20:00 -14°C° 0 mm 1 mps 755 mmHg 90%
    21:00 -14°C° 0 mm 1 mps 755 mmHg 90%
    22:00 -14°C° 0 mm 1 mps 755 mmHg 90%
    23:00 -14°C° 0 mm 1 mps 755 mmHg 90%

    Tomorrow, 22 November, Friday

    Time Temperature Precipitation Wind Pressure Humidity
    00:00 -14°C° 0 mm 1 mps 754 mmHg 89%
    01:00 -14°C° 0 mm 1 mps 754 mmHg 89%
    02:00 -14°C° 0 mm 1 mps 754 mmHg 88%
    03:00 -14°C° 0 mm 1 mps 754 mmHg 88%
    04:00 -14°C° 0 mm 1 mps 754 mmHg 88%
    05:00 -14°C° 0 mm 1 mps 753 mmHg 87%
    06:00 -14°C° 0 mm 1 mps 753 mmHg 87%
    07:00 -14°C° 0 mm 1 mps 753 mmHg 86%
    08:00 -13°C° 0 mm 1 mps 753 mmHg 83%
    09:00 -12°C° 0 mm 1 mps 753 mmHg 79%
    10:00 -11°C° 0 mm 1 mps 753 mmHg 76%
    11:00 -11°C° 0 mm 1 mps 753 mmHg 73%
    12:00 -12°C° 0 mm 2 mps 752 mmHg 71%
    13:00 -10°C° 0 mm 2 mps 752 mmHg 69%
    14:00 -12°C° 0 mm 2 mps 752 mmHg 73%
    15:00 -12°C° 0 mm 2 mps 752 mmHg 78%
    16:00 -13°C° 0 mm 2 mps 751 mmHg 83%
    17:00 -11°C° 0 mm 1 mps 751 mmHg 84%
    18:00 -11°C° 0 mm 1 mps 751 mmHg 86%
    19:00 -11°C° 0 mm 1 mps 751 mmHg 87%
    20:00 -11°C° 0 mm 0 mps 751 mmHg 87%
    21:00 -11°C° 0 mm 0 mps 751 mmHg 87%
    22:00 -11°C° 0 mm 0 mps 751 mmHg 87%
    23:00 -11°C° 0 mm 0 mps 751 mmHg 87%

    Day after tomorrow, 23 November, Saturday

    Time Temperature Precipitation Wind Pressure Humidity
    00:00 -11°C° 0 mm 0 mps 751 mmHg 87%
    01:00 -11°C° 0 mm 0 mps 750 mmHg 86%
    02:00 -11°C° 0 mm 0 mps 750 mmHg 85%
    03:00 -11°C° 0 mm 0 mps 750 mmHg 84%
    04:00 -12°C° 0 mm 0 mps 750 mmHg 83%
    05:00 -12°C° 0 mm 0 mps 750 mmHg 81%
    06:00 -12°C° 0 mm 0 mps 750 mmHg 80%
    07:00 -12°C° 0 mm 0 mps 750 mmHg 79%
    08:00 -11°C° 0 mm 0 mps 750 mmHg 76%
    09:00 -10°C° 0 mm 0 mps 750 mmHg 73%
    10:00 -9°C° 0 mm 0 mps 750 mmHg 69%
    11:00 -9°C° 0 mm 0 mps 749 mmHg 68%
    12:00 -8°C° 0 mm 0 mps 749 mmHg 66%
    13:00 -7°C° 0 mm 1 mps 749 mmHg 65%
    14:00 -8°C° 0 mm 1 mps 748 mmHg 70%
    15:00 -9°C° 0 mm 1 mps 748 mmHg 74%
    16:00 -9°C° 0 mm 1 mps 748 mmHg 79%
    17:00 -9°C° 0 mm 1 mps 747 mmHg 82%
    18:00 -12°C° 0 mm 2 mps 747 mmHg 85%
    19:00 -12°C° 0 mm 2 mps 747 mmHg 88%
    20:00 -12°C° 0 mm 2 mps 747 mmHg 90%
    21:00 -12°C° 0 mm 2 mps 747 mmHg 92%
    22:00 -12°C° 0 mm 2 mps 746 mmHg 94%
    23:00 -12°C° 0 mm 2 mps 746 mmHg 95%

    24 November, Sunday

    Time Temperature Precipitation Wind Pressure Humidity
    00:00 -12°C° 0 mm 2 mps 746 mmHg 96%
    01:00 -12°C° 0 mm 2 mps 746 mmHg 97%
    02:00 -12°C° 0 mm 2 mps 746 mmHg 97%
    03:00 -12°C° 0 mm 2 mps 746 mmHg 97%
    04:00 -12°C° 0 mm 2 mps 746 mmHg 97%
    05:00 -13°C° 0 mm 2 mps 746 mmHg 96%
    06:00 -11°C° 0 mm 1 mps 746 mmHg 95%
    07:00 -11°C° 0 mm 1 mps 746 mmHg 93%
    08:00 -10°C° 0 mm 1 mps 746 mmHg 91%
    09:00 -9°C° 0 mm 1 mps 746 mmHg 89%
    10:00 -9°C° 0 mm 1 mps 746 mmHg 87%
    11:00 -8°C° 0 mm 1 mps 746 mmHg 85%
    12:00 -7°C° 0 mm 1 mps 746 mmHg 83%
    13:00 -6°C° 0 mm 1 mps 746 mmHg 81%
    14:00 -7°C° 0 mm 1 mps 746 mmHg 85%
    15:00 -8°C° 0 mm 1 mps 746 mmHg 88%
    16:00 -8°C° 0 mm 1 mps 746 mmHg 92%
    17:00 -9°C° 0 mm 1 mps 746 mmHg 93%
    18:00 -9°C° 0 mm 1 mps 746 mmHg 93%
    19:00 -9°C° 0 mm 1 mps 746 mmHg 94%
    20:00 -9°C° 0 mm 1 mps 746 mmHg 94%
    21:00 -10°C° 0 mm 1 mps 746 mmHg 94%
    22:00 -10°C° 0 mm 1 mps 746 mmHg 94%
    23:00 -10°C° 0 mm 1 mps 746 mmHg 94%

    25 November, Monday

    Time Temperature Precipitation Wind Pressure Humidity
    00:00 -10°C° 0 mm 1 mps 746 mmHg 93%
    01:00 -10°C° 0 mm 1 mps 746 mmHg 93%
    02:00 -10°C° 0 mm 1 mps 746 mmHg 92%
    03:00 -10°C° 0 mm 1 mps 746 mmHg 91%
    04:00 -10°C° 0 mm 0 mps 746 mmHg 90%
    05:00 -10°C° 0 mm 1 mps 746 mmHg 89%
    06:00 -10°C° 0 mm 1 mps 746 mmHg 88%
    07:00 -10°C° 0 mm 1 mps 746 mmHg 87%
    08:00 -9°C° 0 mm 1 mps 746 mmHg 86%
    09:00 -8°C° 0 mm 1 mps 747 mmHg 84%
    10:00 -7°C° 0 mm 1 mps 747 mmHg 83%
    11:00 -7°C° 0 mm 1 mps 747 mmHg 81%
    12:00 -6°C° 0 mm 1 mps 747 mmHg 79%
    13:00 -6°C° 0 mm 2 mps 747 mmHg 77%
    14:00 -6°C° 0 mm 1 mps 747 mmHg 81%
    15:00 -7°C° 0 mm 1 mps 747 mmHg 84%
    16:00 -8°C° 0 mm 1 mps 747 mmHg 87%
    17:00 -9°C° 0 mm 1 mps 747 mmHg 88%
    18:00 -9°C° 0 mm 1 mps 747 mmHg 89%
    19:00 -10°C° 0 mm 1 mps 747 mmHg 89%
    20:00 -10°C° 0 mm 1 mps 748 mmHg 90%
    21:00 -10°C° 0 mm 1 mps 748 mmHg 90%
    22:00 -11°C° 0 mm 1 mps 748 mmHg 90%
    23:00 -11°C° 0 mm 1 mps 748 mmHg 90%

    26 November, Tuesday

    Time Temperature Precipitation Wind Pressure Humidity
    00:00 -11°C° 0 mm 1 mps 748 mmHg 90%
    01:00 -11°C° 0 mm 0 mps 748 mmHg 90%
    02:00 -11°C° 0 mm 0 mps 748 mmHg 90%
    03:00 -11°C° 0 mm 0 mps 748 mmHg 90%
    04:00 -12°C° 0 mm 0 mps 748 mmHg 90%
    05:00 -12°C° 0 mm 0 mps 748 mmHg 91%
    06:00 -12°C° 0 mm 0 mps 748 mmHg 91%
    07:00 -12°C° 0 mm 0 mps 748 mmHg 91%
    08:00 -11°C° 0 mm 1 mps 748 mmHg 89%
    09:00 -10°C° 0 mm 1 mps 748 mmHg 88%
    10:00 -10°C° 0 mm 1 mps 748 mmHg 86%
    11:00 -9°C° 0 mm 1 mps 748 mmHg 85%
    12:00 -9°C° 0 mm 2 mps 748 mmHg 84%
    13:00 -9°C° 0 mm 2 mps 747 mmHg 83%
    14:00 -9°C° 0 mm 2 mps 747 mmHg 86%
    15:00 -10°C° 0 mm 2 mps 747 mmHg 89%
    16:00 -10°C° 0 mm 2 mps 747 mmHg 92%
    17:00 -10°C° 0 mm 2 mps 747 mmHg 93%
    18:00 -12°C° 0 mm 2 mps 747 mmHg 94%
    19:00 -12°C° 0 mm 2 mps 747 mmHg 95%
    20:00 -12°C° 0 mm 2 mps 747 mmHg 96%
    21:00 -12°C° 0 mm 2 mps 747 mmHg 96%
    22:00 -12°C° 0 mm 2 mps 747 mmHg 96%
    23:00 -12°C° 0 mm 2 mps 747 mmHg 97%
    Show more